LANDSAT 5 1 14780U 84021A 12041.15710960 -.00006492 00000-0 -14327-2 0 6654 2 14780 98.1621 109.2385 0002600 336.6247 23.4861 14.57102713486346 SPOT 2 1 20436U 90005A 12041.09642785 .00000960 00000-0 16931-3 0 908 2 20436 98.6568 168.3541 0153475 191.0604 168.7197 14.62754219146981 ERS-2 1 23560U 95021A 12041.07025069 .00002254 00000-0 17584-3 0 2444 2 23560 98.5041 138.7422 0005447 36.0533 66.6421 15.02353920880126 RADARSAT-1 1 23710U 95059A 12041.13349189 .00000175 00000-0 84668-4 0 2506 2 23710 98.5826 49.2994 0001019 86.6021 0.6327 14.29982009849142 TOMS EP 1 23940U 96037A 12041.11277501 .00000354 00000-0 96184-4 0 8651 2 23940 97.9208 239.9594 0028534 235.3002 124.5519 14.52730896829925 MIDORI (ADEOS) 1 24277U 96046A 12040.43968018 .00000091 00000-0 52981-4 0 8632 2 24277 98.4970 347.9342 0000689 353.3740 6.7432 14.28745324807031 ORBVIEW 2 (SEASTAR) 1 24883U 97037A 12040.76612701 .00000130 00000-0 63882-4 0 6495 2 24883 98.3995 163.1206 0002855 121.9705 238.1767 14.32399027772015 IRS-1D 1 24971U 97057A 12041.10471398 .00000135 00000-0 63196-4 0 3118 2 24971 98.1903 41.2227 0052899 285.4173 74.1174 14.33148937751455 TRMM 1 25063U 97074A 12041.09396711 .00018285 00000-0 25687-3 0 8968 2 25063 34.9621 56.3678 0001003 236.6235 120.8979 15.55752677810958 SPOT 4 1 25260U 98017A 12041.10355092 .00000051 00000-0 43885-4 0 1342 2 25260 98.5815 106.5577 0000843 45.4323 314.6930 14.20094846719708 FASAT B 1 25395U 98043B 12040.88264609 .00000094 00000-0 58121-4 0 2546 2 25395 98.3114 34.8378 0001848 250.4513 109.6469 14.24520128706205 TECHSAT 1B (GO-32) 1 25397U 98043D 12040.60619314 -.00000035 00000-0 25649-5 0 6994 2 25397 98.3494 25.7354 0000542 340.0999 20.0139 14.23256434705737 LANDSAT 7 1 25682U 99020A 12041.19717004 .00000175 00000-0 48991-4 0 8010 2 25682 98.2120 111.2772 0000950 122.8795 237.2491 14.57107166682042 KITSAT 3 1 25756U 99029A 12040.81401394 .00000075 00000-0 29915-4 0 7351 2 25756 98.5641 275.3443 0014875 105.8322 254.4514 14.52764601673630 DLR-TUBSAT 1 25757U 99029B 12041.05109658 .00000067 00000-0 28936-4 0 7877 2 25757 98.6086 267.6373 0014909 141.1065 219.1215 14.50950163673056 IRS-P4 (OCEANSAT 1) 1 25758U 99029C 12040.41711563 .00000194 00000-0 60101-4 0 9739 2 25758 98.2587 133.9922 0001893 138.2879 221.8461 14.51073811673119 QUIKSCAT 1 25789U 99034A 12040.05895406 .00000034 00000-0 31919-4 0 2212 2 25789 98.6226 231.0064 0000927 38.3976 321.7280 14.26889217658332 IKONOS 2 1 25919U 99051A 12041.04276565 .00000202 00000-0 47125-4 0 3635 2 25919 98.1120 117.2432 0000817 76.4584 283.6717 14.64446095661717 CBERS 1 (ZY 1A) 1 25940U 99057A 12040.85578714 .00000139 00000-0 63740-4 0 990 2 25940 98.2463 11.3233 0006125 70.3619 289.8228 14.34654094645540 TERRA 1 25994U 99068A 12041.07584395 .00000218 00000-0 58344-4 0 7100 2 25994 98.2066 116.9742 0000912 69.2321 290.8974 14.57093137646103 ARIRANG 1 (KOMPSAT-1) 1 26032U 99070A 12041.06658004 .00000396 00000-0 80085-4 0 7222 2 26032 97.7911 254.6467 0005934 51.6876 308.4856 14.66210896649272 EO-1 1 26619U 00075A 12041.19990638 .00000733 00000-0 15362-3 0 667 2 26619 98.0936 108.7396 0010707 147.8946 212.2973 14.62519544597726 SAC-C 1 26620U 00075B 12040.05269139 .00000217 00000-0 57806-4 0 5233 2 26620 97.8816 35.5807 0000973 104.4572 255.6728 14.56802158596428 EROS A1 1 26631U 00079A 12041.17747361 .00004566 00000-0 27521-3 0 8673 2 26631 97.6222 111.6457 0005515 285.6451 158.6383 15.11262199621123 QUICKBIRD 2 1 26953U 01047A 12041.22582956 .00005978 00000-0 18637-3 0 2017 2 26953 97.2380 108.2126 0001063 65.2132 327.5756 15.33609735579306 TES 1 26957U 01049A 12041.16107255 -.00001654 00000-0 -12399-3 0 1603 2 26957 97.6477 117.1790 0035947 161.1334 199.1696 15.00730172564400 JASON 1 1 26997U 01055A 12040.57679087 -.00000038 00000-0 10000-3 0 4575 2 26997 66.0367 221.2877 0006798 269.8317 90.1918 12.80930929475948 METEOR-3M 1 27001U 01056A 12040.57487072 -.00000008 00000-0 38819-4 0 330 2 27001 99.1918 227.8838 0014223 40.0446 320.1744 13.68732402507859 BADR-B 1 27003U 01056C 12040.25185525 -.00000003 00000-0 43355-4 0 61 2 27003 99.1582 233.9856 0020767 36.0406 324.2136 13.70128685508381 MAROC-TUBSAT 1 27004U 01056D 12039.91876381 .00000024 00000-0 74373-4 0 8569 2 27004 99.1555 232.7783 0020381 37.9235 322.3345 13.70049541508306 ENVISAT 1 27386U 02009A 12041.10543157 -.00000024 00000-0 64182-5 0 9860 2 27386 98.4772 111.3192 0000986 89.5683 270.5636 14.37493065520294 SPOT 5 1 27421U 02021A 12041.22906094 .00000127 00000-0 79955-4 0 564 2 27421 98.6676 115.4148 0001150 90.2436 303.2637 14.20048804506551 AQUA 1 27424U 02022A 12040.34011765 .00000423 00000-0 10392-3 0 2089 2 27424 98.2228 342.6556 0001216 85.3530 274.7814 14.57093681519605 HAIYANG-1A 1 27430U 02024A 12040.81841832 .00000108 00000-0 58068-4 0 8557 2 27430 98.3455 89.5621 0009921 101.3263 258.9026 14.29982168508342 ALSAT 1 1 27559U 02054A 12041.06763328 .00000366 00000-0 68908-4 0 3750 2 27559 97.8079 256.4125 0024117 143.5035 216.7803 14.69820995491869 MIDORI II (ADEOS-II) 1 27597U 02056A 12041.19886786 .00000109 00000-0 62608-4 0 6515 2 27597 98.3436 82.3590 0001145 18.3897 341.7325 14.26378684476774 IRS-P6 (RESOURCESAT-1) 1 28051U 03046A 12041.12596203 .00000061 00000-0 47189-4 0 6295 2 28051 98.6129 114.5886 0001725 192.6898 167.4236 14.21676212431643 CBERS 2 (ZY 1B) 1 28057U 03049A 12041.11954173 .00000106 00000-0 51443-4 0 817 2 28057 98.1688 62.1436 0001728 14.3672 345.7563 14.35078951435218 TANSUO 1 1 28220U 04012A 12041.16520268 .00001236 00000-0 13269-3 0 974 2 28220 97.4543 38.2261 0010581 208.4011 151.6632 14.90208311424464 FORMOSAT-2 (ROCSAT 2) 1 28254U 04018A 12041.13949325 -.00000024 00000-0 12965-4 0 6944 2 28254 98.9860 106.8020 0002387 127.8240 313.4719 14.00778545395033 AURA 1 28376U 04026A 12041.16965442 .00000451 00000-0 11014-3 0 3672 2 28376 98.2263 345.6274 0001202 92.0375 268.0983 14.57105678402770 PARASOL 1 28498U 04049G 12040.81471415 .00000387 00000-0 90573-4 0 2377 2 28498 98.3956 0.8657 0001435 81.7758 278.3613 14.60058986380118 IRS-P5 (CARTOSAT-1) 1 28649U 05017A 12041.12551768 .00000636 00000-0 85335-4 0 6164 2 28649 97.8531 115.9169 0000706 105.9832 254.1457 14.82667405366283 TOPSAT 1 28891U 05043B 12041.03265144 .00000205 00000-0 51776-4 0 159 2 28891 97.9198 270.4604 0016986 189.5445 170.5447 14.60061312335072 SINAH 1 1 28893U 05043D 12040.67809409 .00000204 00000-0 51361-4 0 2980 2 28893 97.9295 272.1189 0015350 189.8955 170.1941 14.60316457335092 ALOS (DAICHI) 1 28931U 06002A 12041.06804223 .00000479 00000-0 10990-3 0 7501 2 28931 98.0904 113.4032 0001350 37.9553 322.1741 14.59767161322082 EROS B 1 29079U 06014A 12041.22441193 .00007425 00000-0 36677-3 0 5101 2 29079 97.4343 160.9801 0005065 228.5662 177.0438 15.18145160321447 RSS-1 (YAOGAN 1) 1 29092U 06015A 12041.12265168 .00000148 00000-0 25974-4 0 101 2 29092 97.9147 32.5653 0001176 72.3389 287.7952 14.80746985312976 RESURS-DK 1 1 29228U 06021A 12041.20382930 .00000463 00000-0 45568-4 0 3479 2 29228 69.9360 19.2883 0002220 124.9054 235.2308 14.99273902314928 ARIRANG 2 (KOMPSAT-2) 1 29268U 06031A 12041.08045987 .00000368 00000-0 83628-4 0 1558 2 29268 98.2779 292.2414 0015719 24.8938 335.3026 14.61662492295472 LAPAN-TUBSAT 1 29709U 07001A 12041.13018170 .00000247 00000-0 38703-4 0 6494 2 29709 97.6781 77.9941 0013882 14.7521 345.4125 14.80588068274685 CARTOSAT-2 (IRS-P7) 1 29710U 07001B 12041.10300752 .00000298 00000-0 47634-4 0 6256 2 29710 97.9237 102.4670 0001426 60.3324 299.8030 14.78683236274427 HAIYANG-1B 1 31113U 07010A 12041.10174397 .00000115 00000-0 61328-4 0 3712 2 31113 98.4291 105.3004 0014773 95.3367 264.9504 14.29649143252228 COSMO-SKYMED 1 1 31598U 07023A 12041.08770553 .00000564 00000-0 77304-4 0 1960 2 31598 97.8651 228.3581 0001325 94.1334 266.0030 14.82165982252998 TERRASAR-X 1 31698U 07026A 12041.28362269 .00001758 00000-0 86871-4 0 5764 2 31698 97.4467 49.8432 0001363 88.8400 91.8707 15.19156392258242 WORLDVIEW-1 (WV-1) 1 32060U 07041A 12041.18400578 .00003596 00000-0 14937-3 0 9017 2 32060 97.3430 120.2473 0001819 64.1609 19.6761 15.24454456244564 CBERS 2B 1 32062U 07042A 12041.18692817 .00000099 00000-0 46117-4 0 5500 2 32062 98.3928 116.5250 0031647 303.6275 56.1897 14.38766624230582 YAOGAN 3 1 32289U 07055A 12041.10103725 .00000429 00000-0 62460-4 0 7106 2 32289 97.8734 33.5170 0000870 85.4426 274.6869 14.80686250229507 COSMO-SKYMED 2 1 32376U 07059A 12041.12145251 -.00000072 00000-0 -25013-5 0 6074 2 32376 97.8658 228.3927 0001252 93.3025 266.8313 14.82166487225747 RADARSAT-2 1 32382U 07061A 12041.10054519 -.00000001 00000-0 16489-4 0 5995 2 32382 98.5791 49.9560 0001009 79.8706 7.9961 14.29984074217021 CARTOSAT-2A 1 32783U 08021A 12041.14969670 .00000627 00000-0 92446-4 0 1989 2 32783 97.9257 103.0518 0015381 154.5153 205.6829 14.78659899204378 IMS-1 1 32786U 08021D 12041.13980613 .00000782 00000-0 10973-3 0 6825 2 32786 97.8210 102.1040 0013843 125.6340 234.6181 14.80108005204562 JASON 2 (OSTM) 1 33105U 08032A 12040.76885549 -.00000050 00000-0 46041-4 0 2015 2 33105 66.0382 221.1642 0007361 272.0421 87.9749 12.80931004170271 RAPIDEYE 2 1 33312U 08040A 12041.13069787 .00000328 00000-0 50312-4 0 8620 2 33312 97.9239 131.5126 0010996 210.6182 149.4388 14.79883961186364 RAPIDEYE 5 1 33313U 08040B 12041.15625991 .00000367 00000-0 55511-4 0 8526 2 33313 97.9209 130.7594 0019903 84.9545 275.3942 14.79881037186316 RAPIDEYE 1 1 33314U 08040C 12041.14396466 .00000383 00000-0 57538-4 0 8998 2 33314 97.9226 131.5793 0023145 225.5063 134.4265 14.79878623186351 RAPIDEYE 3 1 33315U 08040D 12041.11510037 .00000323 00000-0 49646-4 0 8308 2 33315 97.9198 130.6896 0012598 154.0113 206.1729 14.79881027186316 RAPIDEYE 4 1 33316U 08040E 12041.16876213 .00000362 00000-0 54780-4 0 8246 2 33316 97.9196 130.5754 0013951 102.7933 257.4840 14.79881339186310 HJ-1A 1 33320U 08041A 12041.11742502 .00000740 00000-0 11443-3 0 7876 2 33320 97.8797 113.2105 0023952 203.7879 156.2224 14.75968979184617 HJ-1B 1 33321U 08041B 12041.14773978 .00000637 00000-0 98744-4 0 8440 2 33321 97.8824 113.4591 0041727 217.3812 142.4501 14.76010541184606 GEOEYE 1 1 33331U 08042A 12041.21303638 .00000680 00000-0 13742-3 0 8051 2 33331 98.1093 116.1758 0008997 276.6282 83.3949 14.64449893183156 THEOS 1 33396U 08049A 12041.14796573 -.00000002 00000-0 19566-4 0 5928 2 33396 98.7123 110.1256 0000813 73.6366 9.1183 14.20047260174151 COSMO-SKYMED 3 1 33412U 08054A 12041.10877896 -.00003027 00000-0 -37401-3 0 6342 2 33412 97.8651 228.3798 0001254 90.3933 269.7479 14.82146874178206 YAOGAN 4 1 33446U 08061A 12041.08699642 -.00000140 00000-0 -13648-4 0 5468 2 33446 97.8058 109.1388 0017986 149.9292 210.2970 14.74459860171879 YAOGAN 5 1 33456U 08064A 12041.19291212 .00007512 00000-0 23297-3 0 5452 2 33456 97.2716 114.4013 0009800 190.3650 254.4231 15.33647153175833 YAOGAN 6 1 34839U 09021A 12041.09768356 .00004740 00000-0 20519-3 0 1482 2 34839 97.5485 129.3349 0001316 12.7740 78.0034 15.22915444155460 RAZAKSAT 1 35578U 09037A 12041.15904692 .00000881 00000-0 59922-4 0 8516 2 35578 8.9888 3.6997 0017521 311.6066 48.2646 14.65299560138216 DEIMOS-1 1 35681U 09041A 12041.10508742 .00000296 00000-0 57947-4 0 8141 2 35681 98.0480 302.0215 0001760 102.4696 257.6715 14.69663309135929 OCEANSAT 2 1 35931U 09051A 12040.96564222 .00006032 00000-0 15388-2 0 6444 2 35931 98.2790 138.6819 0003491 74.4501 285.6883 14.50884455126106 WORLDVIEW-2 1 35946U 09055A 12041.12269951 .00000090 00000-0 44499-4 0 6001 2 35946 98.4911 122.1593 0001779 127.1257 233.0113 14.37633813122730 SMOS 1 36036U 09059A 12040.57258614 -.00000043 00000-0 00000+0 0 7036 2 36036 98.4398 229.0903 0000681 91.5111 268.6170 14.39753085119364 YAOGAN 7 1 36110U 09069A 12041.14800134 .00000222 00000-0 40979-4 0 4156 2 36110 97.9422 176.6806 0024991 255.5753 104.2683 14.74460178116876 TANDEM-X 1 36605U 10030A 12041.28362269 .00001736 00000-0 85827-4 0 2028 2 36605 97.4463 49.8418 0001609 97.2953 83.4157 15.19156218 90972 YAOGAN 10 1 36834U 10038A 12041.20718073 .00000356 00000-0 52966-4 0 6715 2 36834 97.8326 44.1897 0001045 50.9533 309.1765 14.80656478 81277 COSMO-SKYMED 4 1 37216U 10060A 12041.07081982 .00000677 00000-0 91512-4 0 4312 2 37216 97.8663 228.3426 0001299 86.2443 273.8892 14.82168004 68282 SAC-D 1 37673U 11024A 12040.83362155 -.00000049 00000-0 00000+0 0 2192 2 37673 98.0099 49.3258 0001236 86.5487 273.5864 14.72330502 35936 RASAT 1 37791U 11044D 12041.17849888 .00000188 00000-0 45626-4 0 5639 2 37791 98.2411 119.8145 0023281 135.1386 225.1712 14.63350126 25868 MEGHA-TROPIQUES 1 37838U 11058A 12040.39532434 .00000264 00000-0 00000+0 0 862 2 37838 19.9770 61.2347 0010425 222.3322 137.6323 14.09696732 16958 SRMSAT 1 37841U 11058D 12040.36676812 .00000264 00000-0 00000+0 0 840 2 37841 19.9735 60.9696 0012283 216.6450 143.3143 14.10113574 16985